[[{"header":{"parameterUnit":"m.s-1","parameterCategory":1,"la1":30.2991,"la2":30.254,"lo1":-89.0895,"lo2":-89.0444,"dy":0.0017,"dx":0.0017,"nx":28,"ny":28,"refTime":"2025-11-24T09:00:00:Z","depth":0,"parameterNumber":2,"parameterNumberName":"U-component_of_WINDS"},"data":[0,0,0,0,0,0,0,0,0,0,0,0,0,0,0,0,0,0,0,0,0,0,0,0,0,0,0,0,0,0,0,0,0,0,0,0,0,0,0,0,0,0,0,0,0,0,0,0,0,0,0,0,0,0,0,0,0,0,-2.0606,-2.0607,0,-2.0645,-2.0645,-2.0645,-2.0575,-2.0573,-2.057,-2.0568,-2.0607,-2.061,-2.0613,0,0,0,0,0,0,0,0,0,0,0,0,0,-2.0472,-2.0475,-2.0606,-2.0607,-2.0607,-2.0644,-2.0645,-2.0645,-2.0576,-2.0573,-2.057,-2.0567,-2.0606,-2.061,-2.0613,0,0,0,0,0,0,0,0,0,0,0,0,0,-2.0522,-2.0476,-2.0606,-2.0577,-2.0575,-2.0644,-2.0645,-2.0646,-2.0576,-2.0573,-2.0569,-2.0566,-2.0605,-2.0609,-2.0614,-2.0714,0,0,-2.0629,-2.0631,0,0,0,0,0,0,0,0,-2.052,-2.0527,-2.0581,-2.0579,-2.0577,-2.0601,-2.0612,-2.0669,-2.0577,-2.0576,-2.0568,-2.0564,-2.0608,-2.0612,-2.0627,-2.0716,-2.0717,-2.0629,-2.0632,-2.0634,-2.0635,0,0,0,0,0,0,0,-2.0516,-2.0525,-2.0621,-2.0582,-2.0579,-2.0561,-2.0565,-2.0622,-2.0611,-2.0575,-2.057,-2.0576,-2.0606,-2.0623,-2.0627,-2.0718,-2.0629,-2.0633,-2.0636,-2.0638,-2.089,-2.0894,0,0,0,0,0,0,-2.0516,-2.0523,-2.062,-2.0623,-2.0539,-2.0567,-2.057,-2.0597,-2.061,-2.0609,-2.0579,-2.0573,-2.0616,-2.0622,-2.0628,-2.0747,-2.0634,-2.0639,-2.0641,-2.0886,-2.0891,-2.0895,0,0,0,0,0,0,-2.0514,-2.0526,-2.0619,-2.0571,-2.0582,-2.0573,-2.0603,-2.06,-2.0616,-2.0613,-2.061,-2.0598,-2.0614,-2.0622,-2.0693,-2.0747,-2.0641,-2.0645,-2.0882,-2.0888,-2.0893,-2.0984,0,0,0,0,0,0,-2.051,-2.0525,-2.0564,-2.0573,-2.0585,-2.0684,-2.0607,-2.0603,-2.0625,-2.0617,-2.063,-2.0629,-2.0611,-2.0686,-2.0698,-2.0752,-2.0649,-2.0877,-2.0884,-2.0891,-2.0976,-2.0992,-2.1005,0,0,0,0,0,-2.0506,-2.0588,-2.0566,-2.0578,-2.0632,-2.0687,-2.0693,-2.0672,-2.0629,-2.0668,-2.0665,-2.0628,-2.0739,-2.0694,-2.0707,-2.0763,-2.0873,-2.0882,-2.089,-2.0969,-2.0989,-2.1005,0,0,0,0,0,0,-2.0585,-2.0588,-2.0564,-2.0652,-2.067,-2.0675,-2.0722,-2.0693,-2.0723,-2.0715,-2.0686,-2.069,-2.0767,-2.0772,-2.0722,-2.086,-2.0799,-2.081,-2.0854,-2.0873,-2.0887,-2.0885,-2.0653,0,0,0,0,0,-2.0613,-2.0657,-2.0657,-2.0734,-2.0744,-2.0732,-2.0755,-2.0737,-2.0754,-2.0761,-2.0764,-2.0782,-2.082,-2.0846,-2.0882,-2.0975,-2.0977,-2.102,-2.1035,-2.1047,-2.1058,-2.1107,-2.1126,-2.0923,-2.0923,-2.0923,0,0,-2.067,-2.0678,-2.0707,-2.075,-2.0762,-2.0808,-2.0739,-2.0791,-2.0824,-2.0769,-2.0837,-2.0839,-2.0857,-2.094,-2.0977,-2.0946,-2.1114,-2.1058,-2.1067,-2.1072,-2.1118,-2.1137,-2.1155,-2.0929,-2.0928,-2.0927,0,0,-2.0799,-2.0809,-2.0874,-2.0887,-2.0906,-2.0897,-2.0913,-2.0922,-2.0922,-2.0989,-2.0949,-2.0988,-2.1055,-2.107,-2.1086,-2.1219,-2.1187,-2.1231,-2.1309,-2.1358,-2.1374,-2.1388,-2.1436,-2.1454,-2.1242,-2.1242,-2.1242,0,-2.0869,-2.0937,-2.0912,-2.0966,-2.0986,-2.0938,-2.1003,-2.1017,-2.1046,-2.1061,-2.1026,-2.1109,-2.1118,-2.1204,-2.1236,-2.1251,-2.1268,-2.1231,-2.1374,-2.1388,-2.14,-2.1446,-2.1464,-2.1247,-2.1247,-2.1246,-2.1246,0,-2.1022,-2.107,-2.112,-2.115,-2.1175,-2.1235,-2.1218,-2.1247,-2.1226,-2.1221,-2.129,-2.1298,-2.1335,-2.1353,-2.1333,-2.1436,-2.1417,-2.1378,-2.1317,-2.1426,-2.1468,-2.1485,-2.1255,-2.1253,-2.1251,-2.125,0,0,-2.1204,-2.1217,-2.1237,-2.1249,-2.1265,-2.1302,-2.1359,-2.1394,-2.142,-2.1441,-2.1488,-2.1546,-2.151,-2.1529,-2.151,-2.1553,-2.1658,-2.1509,-2.1509,-2.1537,-2.1772,-2.1802,-2.1823,-2.1636,-2.1639,-2.1642,-2.1771,0,-2.1332,-2.1432,-2.141,-2.1508,-2.1552,-2.1505,-2.1555,-2.157,-2.1566,-2.1603,-2.1598,-2.1639,-2.1589,-2.16,-2.164,-2.1637,-2.1705,-2.1627,-2.168,-2.1682,-2.1679,-2.1845,-2.1877,-2.1999,-2.1788,-2.179,-2.1792,0,-2.1497,-2.1524,-2.1627,-2.1635,-2.1653,-2.1698,-2.1728,-2.1764,-2.1779,-2.1773,-2.1794,-2.1766,-2.1822,-2.1759,-2.1837,-2.1784,-2.1804,-2.1806,-2.181,-2.1815,-2.1745,-2.1856,-2.2037,-2.2056,-2.1818,-2.1816,-2.1814,0,-2.162,-2.1683,-2.1752,-2.1764,-2.1776,-2.1809,-2.1815,-2.1827,-2.185,-2.1876,-2.189,-2.1922,-2.1941,-2.1966,-2.1948,-2.1903,-2.2028,-2.1963,-2.2025,-2.2026,-2.2055,-2.2054,-2.2244,-2.2066,-2.2066,-2.2066,-2.2065,0,-2.1767,-2.1832,-2.1808,-2.1851,-2.1921,-2.1895,-2.1965,-2.1966,-2.1977,-2.2019,-2.198,-2.202,-2.1993,-2.203,-2.2016,-2.2083,-2.2091,-2.2088,-2.2083,-2.2092,-2.2093,-2.2106,-2.2098,-2.207,-2.2069,-2.2068,-2.2068,0,-2.1918,-2.1904,-2.1977,-2.1982,-2.1984,-2.2036,-2.204,-2.208,-2.2072,-2.2126,-2.2136,-2.2125,-2.2167,-2.2151,-2.2196,-2.2186,-2.2271,-2.2255,-2.2267,-2.2263,-2.2326,-2.2321,-2.2532,-2.2559,-2.2363,-2.2365,-2.2367,0,-2.2014,-2.2063,-2.2072,-2.2097,-2.2107,-2.2148,-2.217,-2.2146,-2.2171,-2.2192,-2.2229,-2.2268,-2.2297,-2.2367,-2.2362,-2.2396,-2.2381,-2.2453,-2.2386,-2.2393,-2.2384,-2.2382,-2.2387,-2.2467,-2.2469,-2.2471,-2.2473,0,-2.2185,-2.2176,-2.221,-2.2242,-2.227,-2.2294,-2.2315,-2.2338,-2.2314,-2.2344,-2.2386,-2.241,-2.2455,-2.2494,-2.2524,-2.253,-2.2498,-2.2493,-2.251,-2.252,-2.2525,-2.2524,-2.2304,-2.2489,-2.2487,-2.2486,-2.2485,-2.2485,-2.2312,-2.2353,-2.2367,-2.2406,-2.2418,-2.2438,-2.2476,-2.2473,-2.2508,-2.2543,-2.2526,-2.2576,-2.2589,-2.2626,-2.2636,-2.2674,-2.2646,-2.267,-2.2676,-2.2683,-2.2691,-2.2517,-2.2679,-2.2679,-2.2678,-2.2678,-2.2678,0,-2.2483,-2.2488,-2.2525,-2.2555,-2.2586,-2.2552,-2.2572,-2.2601,-2.2645,-2.266,-2.269,-2.2739,-2.2776,-2.2774,-2.2808,-2.2839,-2.2825,-2.2849,-2.2847,-2.2849,-2.2714,-2.2697,-2.286,-2.286,-2.286,-2.286,-2.286,-2.286,-2.2575,-2.2643,-2.2635,-2.2708,-2.2713,-2.2762,-2.2776,-2.2794,-2.2806,-2.2863,-2.2894,-2.2892,-2.29,-2.2934,-2.2967,-2.2965,-2.298,-2.301,-2.3003,-2.2877,-2.2859,-2.2842,-2.2826,-2.3013,-2.3013,-2.3135,-2.3137,-2.3137]},{"header":{"parameterUnit":"m.s-1","parameterCategory":1,"la1":30.2991,"la2":30.254,"lo1":-89.0895,"lo2":-89.0444,"dy":0.0017,"dx":0.0017,"nx":28,"ny":28,"refTime":"2025-11-24T09:00:00:Z","depth":0,"parameterNumber":3,"parameterNumberName":"V-component_of_WINDS"},"data":[0,0,0,0,0,0,0,0,0,0,0,0,0,0,0,0,0,0,0,0,0,0,0,0,0,0,0,0,0,0,0,0,0,0,0,0,0,0,0,0,0,0,0,0,0,0,0,0,0,0,0,0,0,0,0,0,0,0,-2.0455,-2.0456,0,-2.0524,-2.0524,-2.0525,-2.0523,-2.0522,-2.0522,-2.0521,-2.0585,-2.0588,-2.059,0,0,0,0,0,0,0,0,0,0,0,0,0,-2.0318,-2.0321,-2.0455,-2.0456,-2.0457,-2.0523,-2.0524,-2.0525,-2.0524,-2.0522,-2.0521,-2.052,-2.0584,-2.0587,-2.0591,0,0,0,0,0,0,0,0,0,0,0,0,0,-2.0381,-2.0321,-2.0455,-2.0464,-2.0466,-2.0523,-2.0524,-2.0525,-2.0524,-2.0522,-2.0521,-2.052,-2.0583,-2.0587,-2.0591,-2.0642,0,0,-2.0603,-2.0604,0,0,0,0,0,0,0,0,-2.0377,-2.0386,-2.0462,-2.0464,-2.0466,-2.0514,-2.05,-2.0564,-2.0524,-2.0502,-2.0521,-2.0519,-2.0562,-2.0568,-2.0583,-2.0645,-2.0648,-2.0603,-2.0605,-2.0607,-2.0608,0,0,0,0,0,0,0,-2.0373,-2.0383,-2.0482,-2.0463,-2.0465,-2.0463,-2.0471,-2.0512,-2.0539,-2.0503,-2.0504,-2.0512,-2.0563,-2.058,-2.0585,-2.0649,-2.0603,-2.0606,-2.0609,-2.061,-2.0755,-2.0756,0,0,0,0,0,0,-2.0367,-2.0379,-2.048,-2.0484,-2.0417,-2.0467,-2.0475,-2.0499,-2.0538,-2.0543,-2.0513,-2.0512,-2.0574,-2.058,-2.0587,-2.0649,-2.0607,-2.0611,-2.0613,-2.0753,-2.0755,-2.0757,0,0,0,0,0,0,-2.0365,-2.0376,-2.0477,-2.0432,-2.0445,-2.0471,-2.0498,-2.0502,-2.0518,-2.0545,-2.055,-2.0526,-2.0573,-2.0582,-2.0629,-2.0651,-2.0612,-2.0616,-2.0751,-2.0754,-2.0756,-2.0773,0,0,0,0,0,0,-2.0361,-2.0375,-2.0396,-2.0432,-2.0447,-2.0519,-2.0499,-2.0504,-2.0526,-2.0524,-2.0558,-2.0563,-2.0573,-2.0623,-2.0632,-2.0656,-2.0619,-2.0749,-2.0752,-2.0755,-2.077,-2.0775,-2.078,0,0,0,0,0,-2.0356,-2.0398,-2.0398,-2.041,-2.0474,-2.0521,-2.0529,-2.0541,-2.0528,-2.0548,-2.0565,-2.0562,-2.0647,-2.0628,-2.0638,-2.0663,-2.0748,-2.0752,-2.0755,-2.0768,-2.0774,-2.078,0,0,0,0,0,0,-2.0362,-2.0402,-2.0403,-2.0458,-2.0486,-2.052,-2.0546,-2.0547,-2.0578,-2.0575,-2.0587,-2.0595,-2.0641,-2.0657,-2.0635,-2.0714,-2.0696,-2.0701,-2.0702,-2.0708,-2.0713,-2.0707,-2.0622,0,0,0,0,0,-2.037,-2.0406,-2.0439,-2.0484,-2.0498,-2.052,-2.0541,-2.0548,-2.0576,-2.0588,-2.0608,-2.0635,-2.0668,-2.0689,-2.0721,-2.0773,-2.0779,-2.0795,-2.08,-2.0803,-2.0808,-2.0835,-2.0842,-2.0768,-2.0768,-2.0768,0,0,-2.0386,-2.0413,-2.0435,-2.0486,-2.0509,-2.0544,-2.053,-2.0568,-2.0594,-2.0593,-2.0639,-2.0655,-2.0685,-2.0735,-2.0757,-2.0749,-2.083,-2.0808,-2.081,-2.0813,-2.0839,-2.0846,-2.0852,-2.077,-2.077,-2.0769,0,0,-2.0434,-2.0459,-2.0499,-2.0522,-2.0557,-2.0571,-2.0581,-2.0615,-2.0626,-2.0673,-2.0672,-2.0702,-2.0759,-2.078,-2.0798,-2.0854,-2.0851,-2.0864,-2.0888,-2.0915,-2.092,-2.0926,-2.0944,-2.0951,-2.0868,-2.0869,-2.0869,0,-2.0449,-2.0505,-2.0519,-2.0557,-2.0579,-2.0582,-2.0622,-2.0643,-2.0685,-2.0699,-2.069,-2.0761,-2.0781,-2.0835,-2.0849,-2.0864,-2.0874,-2.086,-2.0919,-2.0924,-2.0929,-2.0947,-2.0954,-2.087,-2.087,-2.087,-2.0869,0,-2.0521,-2.0559,-2.0587,-2.063,-2.0655,-2.0694,-2.0712,-2.0735,-2.074,-2.0755,-2.0801,-2.0826,-2.0862,-2.0876,-2.088,-2.093,-2.0924,-2.0917,-2.0898,-2.0937,-2.0954,-2.0961,-2.0872,-2.0871,-2.0871,-2.087,0,0,-2.0574,-2.0625,-2.0635,-2.0654,-2.0693,-2.0721,-2.0759,-2.0797,-2.0816,-2.0845,-2.0876,-2.0924,-2.0917,-2.0938,-2.0945,-2.0968,-2.1009,-2.0958,-2.0959,-2.0965,-2.1064,-2.1069,-2.1077,-2.1008,-2.101,-2.1011,-2.1061,0,-2.0625,-2.0695,-2.0709,-2.0769,-2.0803,-2.0806,-2.0839,-2.0865,-2.0879,-2.0909,-2.0924,-2.0958,-2.0947,-2.096,-2.0983,-2.0999,-2.1029,-2.0996,-2.1035,-2.1036,-2.1027,-2.1086,-2.1091,-2.1137,-2.1068,-2.1069,-2.107,0,-2.0694,-2.0727,-2.079,-2.0824,-2.0839,-2.0868,-2.0903,-2.0932,-2.0961,-2.097,-2.0993,-2.0998,-2.1035,-2.1016,-2.1067,-2.1045,-2.1061,-2.1072,-2.1074,-2.1077,-2.1055,-2.1089,-2.1153,-2.1159,-2.1081,-2.108,-2.1079,0,-2.0725,-2.0784,-2.083,-2.0847,-2.0887,-2.0908,-2.0925,-2.0953,-2.0975,-2.1004,-2.1018,-2.1051,-2.1069,-2.1094,-2.1106,-2.1091,-2.1156,-2.1138,-2.1163,-2.1162,-2.1175,-2.1174,-2.1241,-2.1188,-2.1188,-2.1188,-2.1188,0,-2.078,-2.0818,-2.0845,-2.0873,-2.0915,-2.093,-2.0971,-2.0988,-2.1013,-2.1042,-2.1047,-2.1074,-2.1089,-2.1118,-2.1128,-2.1168,-2.1176,-2.1183,-2.1185,-2.1182,-2.1181,-2.1192,-2.1189,-2.119,-2.1189,-2.1189,-2.1188,0,-2.0821,-2.0841,-2.089,-2.0925,-2.0935,-2.0964,-2.0993,-2.1019,-2.1034,-2.1072,-2.1081,-2.1103,-2.1138,-2.1153,-2.1195,-2.1201,-2.1247,-2.1247,-2.1237,-2.1238,-2.1261,-2.1258,-2.1337,-2.1347,-2.1288,-2.1289,-2.1289,0,-2.0854,-2.0884,-2.0923,-2.0944,-2.0963,-2.0996,-2.1019,-2.1034,-2.1056,-2.1091,-2.1113,-2.1148,-2.1177,-2.1231,-2.125,-2.1282,-2.1282,-2.1307,-2.1286,-2.1282,-2.1281,-2.1278,-2.1281,-2.131,-2.1311,-2.1312,-2.1312,0,-2.0911,-2.0919,-2.0952,-2.0988,-2.1015,-2.1044,-2.1071,-2.1088,-2.1107,-2.1132,-2.1168,-2.1191,-2.1234,-2.1268,-2.1301,-2.1317,-2.1317,-2.1319,-2.1326,-2.1323,-2.1315,-2.1318,-2.1246,-2.1316,-2.1316,-2.1316,-2.1315,-2.1315,-2.0949,-2.0975,-2.1007,-2.1042,-2.1065,-2.1091,-2.1118,-2.1136,-2.1167,-2.1205,-2.1211,-2.125,-2.1276,-2.1321,-2.1338,-2.1367,-2.1361,-2.1371,-2.1374,-2.1376,-2.1377,-2.1312,-2.1373,-2.1373,-2.1373,-2.1373,-2.1373,0,-2.1005,-2.1025,-2.1058,-2.1098,-2.1126,-2.1126,-2.1156,-2.1179,-2.1213,-2.1239,-2.1268,-2.1309,-2.1342,-2.1363,-2.1396,-2.1415,-2.1416,-2.1423,-2.1421,-2.1424,-2.1381,-2.1371,-2.1422,-2.1422,-2.1422,-2.1422,-2.1422,-2.1422,-2.1037,-2.1082,-2.1093,-2.1149,-2.1168,-2.1207,-2.1224,-2.1248,-2.1269,-2.1315,-2.1343,-2.1357,-2.1381,-2.1415,-2.1445,-2.145,-2.1461,-2.1469,-2.1474,-2.1433,-2.1427,-2.1423,-2.1413,-2.1472,-2.1472,-2.1514,-2.1515,-2.1515]}]]